Terug naar catalogus

STARLINK-38090

ActiefCommunicatieSSO
NORAD 69994·PAYLOAD·🇺🇸 United States

Gelanceerd Jul 11, 2026 vanaf Vandenberg Space Force Base

Loading…

Volgende Passages (komende 24 uur)

TLE

VersSource: CelesTrak SupGP

Epoch: Sep 14, 2026, 21:18 UTC

1 69994C 26159V   26257.88798611 -.02393900  00000+0 -42510-1 0  2577
2 69994  97.2848  99.6605 0001931  90.5013  94.0542 15.51460308    12

Volg STARLINK-38090 in realtime met AllMySat

Download on the App Store